FW7338 Weather Reports


time (UTC)temp
C
wind
direction
speed
KPH
gust
KPH
rain 1hr
cm
rain 24hr
cm
rain mn
cm
humidity
%
barometer
mb
20260504024600 8 339 27.4 40.2 0.00 0.00 0.00 76 998.7
20260504023057 9 351 33.8 49.9 0.00 0.00 0.00 73 998.6
20260504021605 10 352 38.6 61.2 0.00 0.00 0.00 71 998.6
20260504020108 10 348 43.5 64.4 0.00 0.00 0.00 69 998.7
20260504014608 11 5 48.3 70.8 0.00 0.00 0.00 66 998.3
20260504013100 12 346 53.1 80.5 0.00 0.00 0.00 60 997.7
20260504011556 16 334 24.1 37.0 0.00 0.00 0.00 41 996.3
20260504010105 17 339 11.3 19.3 0.00 0.00 0.00 48 995.5
20260504004601 18 317 9.7 16.1 0.00 0.00 0.00 45 995.5
20260504003057 17 306 6.4 14.5 0.00 0.00 0.00 48 995.7
20260504001606 17 304 9.7 16.1 0.00 0.00 0.00 48 995.5
20260504000100 17 305 16.1 24.1 0.00 0.00 0.00 47 995.7
20260503234556 18 296 19.3 25.7 0.00 0.00 0.00 43 995.9
20260503233101 18 294 20.9 33.8 0.00 0.00 0.00 43 996.2
20260503231558 18 314 22.5 33.8 0.00 0.00 0.00 41 996.4
20260503224558 18 321 32.2 46.7 0.00 0.00 0.00 41 997.2
20260503223055 18 329 27.4 37.0 0.00 0.00 0.00 39 997.1
20260503221602 21 327 32.2 53.1 0.00 0.00 0.00 32 997.6
20260503220059 21 275 33.8 56.3 0.00 0.00 0.00 25 997.4
20260503214603 22 277 37.0 59.5 0.00 0.00 0.00 25 997.7
20260503213058 22 270 35.4 56.3 0.00 0.00 0.00 24 998.0
20260503211557 22 267 38.6 64.4 0.00 0.00 0.00 23 998.2
20260503210059 22 266 45.1 59.5 0.00 0.00 0.00 23 998.6
20260503204603 23 273 45.1 62.8 0.00 0.00 0.00 23 998.9
20260503203058 23 285 41.8 62.8 0.00 0.00 0.00 22 999.3
20260503201558 22 279 40.2 59.5 0.00 0.00 0.00 23 999.7
20260503200101 22 264 38.6 62.8 0.00 0.00 0.00 23 1000.1
20260503194609 22 271 30.6 48.3 0.00 0.00 0.00 25 1000.5
20260503193112 22 268 35.4 56.3 0.00 0.00 0.00 23 1000.8
20260503191602 22 273 35.4 48.3 0.00 0.00 0.00 24 1001.1
20260503190110 21 288 32.2 48.3 0.00 0.00 0.00 24 1001.6
20260503184601 21 275 30.6 51.5 0.00 0.00 0.00 26 1002.2
20260503183114 20 267 35.4 45.1 0.00 0.00 0.00 25 1002.8
20260503181602 20 273 30.6 51.5 0.00 0.00 0.00 25 1003.2
20260503180103 21 289 33.8 53.1 0.00 0.00 0.00 24 1003.7
20260503174605 20 266 38.6 56.3 0.00 0.00 0.00 26 1003.9
20260503173113 20 280 32.2 59.5 0.00 0.00 0.00 26 1004.3
20260503171555 20 287 32.2 54.7 0.00 0.00 0.00 27 1004.5
20260503150111 13 238 25.7 38.6 0.00 0.00 0.00 44 1007.9
20260503140119 10 207 17.7 27.4 0.00 0.00 0.00 56 1009.5
20260503130106 5 215 16.1 20.9 0.00 0.00 0.00 71 1010.0
20260503110110 -1 318 4.8 8.0 0.00 0.00 0.00 86 1011.1
20260503100108 0 333 3.2 6.4 0.00 0.00 0.00 85 1011.7
20260503081606 -1 333 1.6 3.2 0.00 0.00 0.00 83 1011.8
20260503071607 0 333 1.6 4.8 0.00 0.00 0.00 79 1012.1
20260503070104 1 333 1.6 4.8 0.00 0.00 0.00 76 1012.1
20260503060113 2 0 0.0 0.0 0.00 0.00 0.00 73 1012.1
20260503054558 2 0 0.0 0.0 0.00 0.00 0.00 72 1012.3
20260503053058 2 0 0.0 0.0 0.00 0.00 0.00 71 1012.3
20260503051602 3 0 0.0 0.0 0.00 0.00 0.00 70 1012.3
20260503050057 3 0 0.0 0.0 0.00 0.00 0.00 69 1012.3
20260503044554 3 0 0.0 6.4 0.00 0.00 0.00 69 1012.4
20260503043057 5 333 3.2 4.8 0.00 0.00 0.00 63 1012.5
20260503041556 5 333 4.8 8.0 0.00 0.00 0.00 62 1012.5
20260503040055 6 333 4.8 12.9 0.00 0.00 0.00 58 1012.6
20260503034556 8 333 12.9 19.3 0.00 0.00 0.00 54 1012.8
20260503033101 8 334 16.1 22.5 0.00 0.00 0.00 52 1012.8
20260503031558 9 326 16.1 24.1 0.00 0.00 0.00 50 1012.8
20260503030058 9 333 16.1 20.9 0.00 0.00 0.00 49 1012.7